Location: *
(43.6428°N, 11.5461°E)
Time: 10:02:37
(UTC+00:00)

Daily predictions for brighter satellites

Satellite Brightness Start Highest point End
(mag) Time Altitude Azimuth Time Altitude Azimuth Time Altitude Azimuth
CZ-4 R/B 2.3 16:45:29 10° SE 16:49:08 29° ENE 16:52:48 10° N
ATLAS 5 CENTAUR R/B 3.7 16:46:03 10° W 16:49:35 23° NW 16:53:28 10° NNE
FALCON 9 DEB 4.4 16:48:17 10° NW 16:51:19 27° NNE 16:54:21 10° E
CENTAUR R/B 4.1 16:49:10 10° SE 16:51:26 12° ESE 16:53:50 10° E
COSMO-SKYMED 1 3.0 16:52:44 10° NNE 16:56:50 39° E 17:00:54 10° SSE
Gbstr 26 Del rocket 4.1 16:51:22 10° NW 16:57:08 61° NNE 17:04:12 10° ESE
Meteor 1-16 Rocket 4.1 16:52:33 10° S 16:58:04 81° E 17:03:29 10° NNE
Envisat 3.1 16:53:55 10° SSE 16:58:53 58° ENE 17:03:53 10° N
Cosmos 1726 2.0 16:56:41 10° S 17:00:19 71° E 17:03:58 10° NNE
Cosmos 1908 3.5 16:57:09 10° SSE 17:00:52 45° E 17:04:37 10° NNE
Cosmos 2278 Rocket 2.3 16:55:52 10° S 17:01:23 56° ESE 17:06:57 10° NNE
Okean-O 2.7 16:58:29 10° SSE 17:02:55 85° WSW 17:07:23 10° NNW
Cosmos 1953 Rocket 4.1 17:00:00 10° NNW 17:04:19 64° W 17:08:35 10° S
BREEZE-M DEB (TANK) 3.1 17:00:02 10° SW 17:06:03 53° SSE 17:08:20 13° ENE
Falcon 9 debris 4.0 17:03:03 10° NW 17:06:14 33° NNE 17:08:54 13° E
Unknown 4.3 17:03:23 10° NW 17:06:31 29° NNE 17:09:07 13° E
FengYun 1-2 T 4.3 17:02:14 10° SSE 17:07:43 57° ENE 17:13:11 10° N
Cosmos 1356 3.5 17:05:12 10° SSW 17:08:38 83° W 17:12:06 10° N
Meteor 1-11 4.3 17:03:53 10° N 17:09:39 64° ENE 17:15:24 10° SSE
Cosmos 1953 4.3 17:06:28 10° SW 17:10:10 33° WNW 17:13:53 10° N
Cosmos 1605 Rocket 4.0 17:04:52 10° N 17:10:58 58° ENE 17:16:56 10° SSE
Cosmos 1934 Rocket 4.1 17:07:33 10° N 17:13:57 89° W 17:20:20 10° S
CSL-04 Rocket 3.9 17:08:48 10° SE 17:14:06 50° ENE 17:19:22 10° N
USA 238 DEB 3.8 17:09:54 10° SSW 17:16:21 55° ESE 17:23:02 10° NE
USA 238 3.8 17:10:01 10° SSW 17:16:28 54° ESE 17:23:07 10° NE
Meteor 2-10 4.0 17:14:36 10° SSW 17:19:40 82° WNW 17:24:44 10° N
SKYMED 3 4.5 17:16:31 10° NNE 17:20:52 72° ESE 17:25:11 10° S
COBE Rocket 4.0 17:15:47 10° N 17:20:57 86° WNW 17:25:58 10° SSW
CZ-4 R/B 4.4 17:16:53 10° SSE 17:20:57 68° ENE 17:25:03 10° N
Cosmos 1727 Rocket 4.2 17:16:15 10° SSE 17:22:05 46° E 17:27:57 10° NNE
Cosmos 1076 Rocket 4.3 17:20:12 10° NNE 17:24:03 30° ENE 17:27:52 10° SE
Unknown 3.8 17:25:01 10° NW 17:28:22 40° NNE 17:30:03 23° E
Cosmos 44 4.2 17:24:34 10° S 17:28:49 29° ESE 17:31:18 19° ENE
YAOGAN 6 2.5 17:26:25 10° SSE 17:30:04 80° ENE 17:33:42 10° N
Cosmos 1812 Rocket 3.7 17:29:23 10° SSE 17:33:38 49° E 17:37:57 10° NNE
Cosmos 2058 3.8 17:31:32 10° NNE 17:35:11 28° ENE 17:36:43 22° ESE
Cosmos 1833 Rocket 2.6 17:29:41 10° NNW 17:35:20 79° ENE 17:40:57 10° SSE
NOSS 3-2 (A) 3.3 17:33:55 10° SSW 17:39:32 64° ESE 17:45:52 10° NE
Ariane Rocket 3.4 17:36:51 10° SE 17:41:36 41° ENE 17:46:22 10° N
YAOGAN 1 2.5 17:39:54 10° SSE 17:44:13 88° ENE 17:48:34 10° NNW
SKYMED 2 4.1 17:40:38 10° N 17:44:55 62° WNW 17:49:12 10° SSW
IRS-1A Rocket 4.5 17:46:35 11° SE 17:51:37 46° ENE 17:56:52 10° N
Cosmos 1300 2.6 17:48:32 10° S 17:52:17 59° E 17:56:03 10° NNE
Cosmos 1939 Rocket 2.9 17:49:26 12° SSE 17:52:59 56° ENE 17:56:58 10° N
Shenzhou-11 Module 3.2 17:53:24 10° W 17:55:53 29° SSW 17:56:17 28° S
Cosmos 2100 Rocket 4.0 17:49:57 10° N 17:56:00 53° ENE 18:01:58 10° SSE
CZ-2D R/B 3.1 17:52:21 10° SSE 17:56:11 69° ENE 18:00:02 10° N
Abrixas rocket 3.0 17:54:15 10° W 17:57:08 37° N 17:57:37 35° NNE
Cosmos 1937 Rocket 4.3 17:54:45 10° N 17:59:13 29° ENE 17:59:14 29° ENE
NOSS 3-2 (C) 3.3 17:59:39 10° SSW 18:05:17 63° ESE 18:09:34 21° NE
ADEOS Rocket 4.0 17:59:18 10° NNE 18:05:53 31° E 18:11:59 10° SSE
Cosmos 2082 Rocket 2.2 18:00:29 10° NNW 18:06:14 86° WSW 18:11:51 10° SSE
BREEZE-M DEB (TANK) 4.2 18:02:27 10° WNW 18:07:21 88° SSW 18:18:49 18° SE
Cosmos 2016 Rocket 4.2 18:07:18 10° N 18:13:21 47° ENE 18:15:25 35° ESE
Unknown 3.5 18:16:03 10° WNW 18:19:12 60° WSW 18:19:12 60° WSW
Cosmos 1461 4.5 18:17:49 10° NW 18:21:34 34° WSW 18:24:54 13° S
Meteor 2-1 Rocket 4.0 18:17:43 10° S 18:23:12 79° E 18:28:48 10° NNE
Cosmos 1763 Rocket 4.0 18:18:57 10° S 18:22:47 41° SE 18:22:47 41° SE
CZ-4 R/B 3.8 18:20:38 10° SSW 18:24:07 25° W 18:27:39 10° NW
SPOT 3 Rocket 4.3 18:26:37 35° NE 18:26:37 35° NE 18:30:15 10° N
Lacrosse 5 2.1 18:20:53 10° NW 18:25:54 64° SW 18:27:30 41° SSE
SJ 16-02 2.6 18:23:18 10° N 18:25:44 28° NNE 18:25:44 28° NNE
FALCON 9 DEB 4.0 18:25:12 10° WNW 18:27:59 50° W 18:27:59 50° W
In-Cosmos 22 Rocket 4.0 18:24:24 10° N 18:29:52 85° E 18:32:45 30° SSE
ATLAS CENTAUR R/B 4.1 18:30:05 10° N 18:30:12 10° NNE 18:30:12 10° NNE
ATLAS 3B R/B 2.5 18:26:14 10° SSW 18:32:55 67° ESE 18:35:04 44° ENE
Cosmos 2084 Rocket 3.7 18:31:28 10° NW 18:35:51 64° WSW 18:36:06 62° SW
CENTAUR R/B 2.3 18:34:45 10° SSW 18:40:37 78° ESE 18:42:36 47° NE
H-2A R/B 3.0 18:42:58 36° NNE 18:42:58 36° NNE 18:46:27 10° N
Cosmos 1459 Rocket 4.2 18:39:25 10° NNW 18:45:39 72° W 18:51:55 10° S
Cosmos 2278 Rocket 4.2 18:41:12 10° WSW 18:45:50 25° NW 18:50:31 10° N
Cosmos 2061 Rocket 3.8 18:41:04 10° N 18:47:21 87° E 18:49:20 46° S
Cosmos 2297 4.0 18:43:34 10° SW 18:49:13 65° WNW 18:53:21 19° NNE
Cosmos 1898 Rocket 3.5 18:44:29 10° NNW 18:49:48 79° WSW 18:50:02 76° SW
ARGOS 4.2 19:05:13 36° N 19:05:13 36° N 19:08:23 10° N
Cosmos 44 4.4 19:05:16 10° WSW 19:09:47 40° NW 19:09:47 40° NW
Cosmos 2123 Rocket 4.3 19:18:28 10° SSW 19:24:50 64° WNW 19:30:57 10° N
ADEOS Rocket 3.9 19:44:15 10° N 19:51:41 56° WNW 19:58:31 10° SW
ATLAS 3B R/B 4.3 20:18:11 10° W 20:22:24 28° WNW 20:22:24 28° WNW
CENTAUR R/B 4.5 20:26:42 10° W 20:29:52 24° WNW 20:29:52 24° WNW
